Time,TemperatureF,DewpointF,PressureIn,WindDirection,WindDirectionDegrees,WindSpeedMPH,WindSpeedGustMPH,Humidity,HourlyPrecipIn,Conditions,Clouds,dailyrainin,SoftwareType,DateUTC
2013-07-31 00:01:00,66.6,60.9,30.10,South,177,1.3,3.5,82,0.00,RA,,0.00,WeatherDisplay:10.37,2013-07-31 04:01:00,
2013-07-31 00:02:00,66.6,60.9,30.10,West,267,0.0,3.5,82,0.00,RA,,0.00,WeatherDisplay:10.37,2013-07-31 04:02:00,
2013-07-31 00:07:00,66.7,61.1,30.10,SSE,155,0.9,1.1,82,0.00,RA,,0.00,WeatherDisplay:10.37,2013-07-31 04:07:00,
2013-07-31 00:12:00,66.7,61.1,30.10,SE,132,0.0,0.0,82,0.00,BKN,,0.00,WeatherDisplay:10.37,2013-07-31 04:12:00,
2013-07-31 00:17:00,66.7,61.1,30.10,South,177,0.4,1.1,82,0.00,BKN,,0.00,WeatherDisplay:10.37,2013-07-31 04:17:00,
2013-07-31 00:22:00,66.7,61.1,30.10,SE,132,3.1,3.5,82,0.00,BKN,,0.00,WeatherDisplay:10.37,2013-07-31 04:22:00,
2013-07-31 00:27:00,66.7,61.1,30.11,SSE,155,1.3,1.3,82,0.00,BKN,,0.00,WeatherDisplay:10.37,2013-07-31 04:27:00,
2013-07-31 00:32:00,66.7,61.1,30.10,SSW,199,2.9,4.6,82,0.00,BKN,,0.00,WeatherDisplay:10.37,2013-07-31 04:32:00,
2013-07-31 00:37:00,66.7,61.1,30.10,SSW,199,2.9,3.5,82,0.00,BKN,,0.00,WeatherDisplay:10.37,2013-07-31 04:37:00,
2013-07-31 00:42:00,66.7,61.1,30.10,SSE,155,2.0,2.3,82,0.00,BKN,,0.00,WeatherDisplay:10.37,2013-07-31 04:42:00,
2013-07-31 00:47:00,66.9,61.2,30.10,South,177,3.4,3.6,82,0.00,BKN,,0.00,WeatherDisplay:10.37,2013-07-31 04:47:00,
2013-07-31 00:52:00,66.9,61.6,30.09,South,177,2.9,3.5,83,0.00,BKN,,0.00,WeatherDisplay:10.37,2013-07-31 04:52:00,
2013-07-31 00:57:00,66.9,61.9,30.10,WSW,245,0.0,0.0,84,0.00,BKN,,0.00,WeatherDisplay:10.37,2013-07-31 04:57:00,
2013-07-31 01:02:00,66.9,61.9,30.10,SE,132,3.1,3.1,84,0.00,BKN,,0.00,WeatherDisplay:10.37,2013-07-31 05:02:00,
2013-07-31 01:07:00,66.9,61.9,30.10,South,177,1.1,1.1,84,0.00,BKN,,0.00,WeatherDisplay:10.37,2013-07-31 05:07:00,
2013-07-31 01:12:00,66.9,62.3,30.09,SE,132,5.8,5.8,85,0.00,BKN,,0.00,WeatherDisplay:10.37,2013-07-31 05:12:00,
2013-07-31 01:17:00,66.9,62.3,30.08,SW,222,8.3,8.3,85,0.00,BKN,,0.00,WeatherDisplay:10.37,2013-07-31 05:17:00,
2013-07-31 01:22:00,66.9,62.3,30.08,SSE,155,0.7,2.3,85,0.00,BKN,,0.00,WeatherDisplay:10.37,2013-07-31 05:22:00,
2013-07-31 01:27:00,66.9,62.3,30.08,ESE,109,0.0,3.1,85,0.00,BKN,,0.00,WeatherDisplay:10.37,2013-07-31 05:27:00,
2013-07-31 01:32:00,66.9,62.3,30.08,South,177,0.0,0.0,85,0.00,BKN,,0.00,WeatherDisplay:10.37,2013-07-31 05:32:00,
2013-07-31 01:37:00,66.9,62.3,30.08,SSE,155,0.8,3.5,85,0.00,BKN,,0.00,WeatherDisplay:10.37,2013-07-31 05:37:00,
2013-07-31 01:42:00,66.9,62.3,30.08,South,177,3.8,3.8,85,0.00,BKN,,0.00,WeatherDisplay:10.37,2013-07-31 05:42:00,
2013-07-31 01:47:00,66.9,62.3,30.08,SSE,155,5.4,10.4,85,0.00,BKN,,0.00,WeatherDisplay:10.37,2013-07-31 05:47:00,
2013-07-31 01:52:00,66.9,62.3,30.08,SE,132,2.9,4.6,85,0.00,BKN,,0.00,WeatherDisplay:10.37,2013-07-31 05:52:00,
2013-07-31 01:57:00,66.9,62.3,30.08,South,177,5.1,5.8,85,0.00,BKN,,0.00,WeatherDisplay:10.37,2013-07-31 05:57:00,
2013-07-31 02:02:00,66.9,62.3,30.08,SSE,155,6.0,6.0,85,0.00,BKN,,0.00,WeatherDisplay:10.37,2013-07-31 06:02:00,
2013-07-31 02:07:00,66.9,62.3,30.08,SSE,155,2.2,2.3,85,0.00,BKN,,0.00,WeatherDisplay:10.37,2013-07-31 06:07:00,
2013-07-31 02:12:00,66.9,62.3,30.08,SW,222,2.9,5.8,85,0.00,BKN,,0.00,WeatherDisplay:10.37,2013-07-31 06:12:00,
2013-07-31 02:17:00,66.9,62.3,30.08,SSE,155,6.5,6.9,85,0.00,BKN,,0.00,WeatherDisplay:10.37,2013-07-31 06:17:00,
2013-07-31 02:22:00,66.9,62.3,30.08,South,177,7.8,8.1,85,0.00,BKN,,0.00,WeatherDisplay:10.37,2013-07-31 06:22:00,
2013-07-31 02:27:00,67.1,62.8,30.09,South,177,3.7,3.7,86,0.00,BKN,,0.00,WeatherDisplay:10.37,2013-07-31 06:27:00,
2013-07-31 02:32:00,67.1,62.8,30.09,South,177,4.9,5.8,86,0.00,BKN,,0.00,WeatherDisplay:10.37,2013-07-31 06:32:00,
2013-07-31 02:37:00,67.1,62.8,30.08,WSW,245,0.0,0.0,86,0.00,BKN,,0.00,WeatherDisplay:10.37,2013-07-31 06:37:00,
2013-07-31 02:42:00,66.9,62.6,30.08,South,177,9.2,9.2,86,0.00,BKN,,0.00,WeatherDisplay:10.37,2013-07-31 06:42:00,
2013-07-31 02:47:00,66.9,62.6,30.08,SSE,155,2.8,3.5,86,0.00,BKN,,0.00,WeatherDisplay:10.37,2013-07-31 06:47:00,
2013-07-31 02:52:00,66.9,62.6,30.08,South,177,6.7,6.9,86,0.00,BKN,,0.00,WeatherDisplay:10.37,2013-07-31 06:52:00,
2013-07-31 02:57:00,66.9,62.6,30.08,SSE,155,0.5,0.0,86,0.00,BKN,,0.00,WeatherDisplay:10.37,2013-07-31 06:57:00,
2013-07-31 03:02:00,66.9,62.6,30.08,SW,222,0.0,0.0,86,0.00,BKN,,0.00,WeatherDisplay:10.37,2013-07-31 07:02:00,
2013-07-31 03:07:00,66.9,62.6,30.08,SSW,199,4.5,4.6,86,0.00,BKN,,0.00,WeatherDisplay:10.37,2013-07-31 07:07:00,
2013-07-31 03:12:00,66.9,62.6,30.08,South,177,2.2,2.3,86,0.00,OVC,,0.00,WeatherDisplay:10.37,2013-07-31 07:12:00,
2013-07-31 03:17:00,66.9,62.6,30.08,South,177,2.5,4.6,86,0.00,OVC,,0.00,WeatherDisplay:10.37,2013-07-31 07:17:00,
2013-07-31 03:22:00,66.9,62.6,30.08,WSW,245,2.0,3.5,86,0.00,OVC,,0.00,WeatherDisplay:10.37,2013-07-31 07:22:00,
2013-07-31 03:27:00,66.7,62.4,30.08,East,87,1.8,2.3,86,0.00,OVC,,0.00,WeatherDisplay:10.37,2013-07-31 07:27:00,
2013-07-31 03:32:00,66.7,62.4,30.07,SE,132,3.1,4.6,86,0.04,RA,,0.04,WeatherDisplay:10.37,2013-07-31 07:32:00,
2013-07-31 03:37:00,66.7,62.4,30.07,SSE,155,4.2,4.6,86,0.04,RA,,0.04,WeatherDisplay:10.37,2013-07-31 07:37:00,
2013-07-31 03:42:00,66.6,62.2,30.07,SE,132,0.9,1.1,86,0.04,OVC,,0.04,WeatherDisplay:10.37,2013-07-31 07:42:00,
2013-07-31 03:47:00,66.6,62.2,30.07,SSE,155,1.0,1.6,86,0.04,OVC,,0.04,WeatherDisplay:10.37,2013-07-31 07:47:00,
2013-07-31 03:52:00,66.4,62.1,30.07,WSW,245,0.5,2.3,86,0.04,OVC,,0.04,WeatherDisplay:10.37,2013-07-31 07:52:00,
2013-07-31 03:57:00,66.4,62.1,30.06,ESE,109,9.2,9.2,86,0.04,OVC,,0.04,WeatherDisplay:10.37,2013-07-31 07:57:00,
2013-07-31 04:02:00,66.2,61.9,30.07,WSW,245,1.6,2.3,86,0.04,OVC,,0.04,WeatherDisplay:10.37,2013-07-31 08:02:00,
2013-07-31 04:07:00,66.0,61.7,30.07,SSW,199,0.0,2.3,86,0.04,OVC,,0.04,WeatherDisplay:10.37,2013-07-31 08:07:00,
2013-07-31 04:12:00,66.0,61.7,30.07,SSW,199,1.8,6.5,86,0.04,OVC,,0.04,WeatherDisplay:10.37,2013-07-31 08:12:00,
2013-07-31 04:17:00,66.0,61.7,30.06,South,177,2.3,6.9,86,0.04,OVC,,0.04,WeatherDisplay:10.37,2013-07-31 08:17:00,
2013-07-31 04:22:00,66.0,61.7,30.06,SSW,199,0.0,2.3,86,0.04,OVC,,0.04,WeatherDisplay:10.37,2013-07-31 08:22:00,
2013-07-31 04:27:00,66.0,61.7,30.06,SSE,155,4.5,6.9,86,0.04,OVC,,0.04,WeatherDisplay:10.37,2013-07-31 08:27:00,
2013-07-31 04:32:00,65.8,61.5,30.06,West,267,2.1,5.8,86,0.00,OVC,,0.04,WeatherDisplay:10.37,2013-07-31 08:32:00,
2013-07-31 04:37:00,65.8,61.5,30.06,SSW,199,2.5,2.5,86,0.00,OVC,,0.04,WeatherDisplay:10.37,2013-07-31 08:37:00,
2013-07-31 04:42:00,65.8,61.5,30.06,SE,132,1.6,1.6,86,0.00,OVC,,0.04,WeatherDisplay:10.37,2013-07-31 08:42:00,
2013-07-31 04:47:00,65.7,61.4,30.06,SE,132,0.8,4.6,86,0.00,OVC,,0.04,WeatherDisplay:10.37,2013-07-31 08:47:00,
2013-07-31 04:52:00,65.5,61.2,30.05,SW,222,1.6,1.6,86,0.00,OVC,,0.04,WeatherDisplay:10.37,2013-07-31 08:52:00,
2013-07-31 04:57:00,65.5,61.2,30.06,South,177,2.9,3.5,86,0.00,OVC,,0.04,WeatherDisplay:10.37,2013-07-31 08:57:00,
2013-07-31 05:02:00,65.5,61.5,30.06,SSE,155,2.9,3.5,87,0.00,OVC,,0.04,WeatherDisplay:10.37,2013-07-31 09:02:00,
2013-07-31 05:07:00,65.5,61.5,30.05,South,177,0.0,0.0,87,0.00,OVC,,0.04,WeatherDisplay:10.37,2013-07-31 09:07:00,
2013-07-31 05:12:00,65.5,61.5,30.05,South,177,7.6,8.1,87,0.00,OVC,,0.04,WeatherDisplay:10.37,2013-07-31 09:12:00,
2013-07-31 05:17:00,65.3,61.3,30.05,ESE,109,0.7,2.3,87,0.00,OVC,,0.04,WeatherDisplay:10.37,2013-07-31 09:17:00,
2013-07-31 05:22:00,65.3,61.3,30.05,West,267,0.0,0.0,87,0.00,OVC,,0.04,WeatherDisplay:10.37,2013-07-31 09:22:00,
2013-07-31 05:27:00,65.3,61.3,30.05,SE,132,5.1,5.8,87,0.00,OVC,,0.04,WeatherDisplay:10.37,2013-07-31 09:27:00,
2013-07-31 05:32:00,65.3,61.3,30.05,SSE,155,3.5,5.8,87,0.00,OVC,,0.04,WeatherDisplay:10.37,2013-07-31 09:32:00,
2013-07-31 05:37:00,65.3,61.3,30.05,South,177,0.0,1.1,87,0.00,OVC,,0.04,WeatherDisplay:10.37,2013-07-31 09:37:00,
2013-07-31 05:42:00,65.3,61.3,30.05,South,177,4.2,4.6,87,0.00,OVC,,0.04,WeatherDisplay:10.37,2013-07-31 09:42:00,
2013-07-31 05:47:00,65.1,61.2,30.05,SE,132,1.6,2.3,87,0.00,OVC,,0.04,WeatherDisplay:10.37,2013-07-31 09:47:00,
2013-07-31 05:52:00,65.1,61.2,30.05,SW,222,0.0,2.3,87,0.00,OVC,,0.04,WeatherDisplay:10.37,2013-07-31 09:52:00,
2013-07-31 05:57:00,65.3,61.3,30.05,ESE,109,0.9,1.1,87,0.00,OVC,,0.04,WeatherDisplay:10.37,2013-07-31 09:57:00,
2013-07-31 06:02:00,65.1,61.2,30.05,SSE,155,2.2,4.6,87,0.00,OVC,,0.04,WeatherDisplay:10.37,2013-07-31 10:02:00,
2013-07-31 06:07:00,65.1,61.2,30.05,SE,132,2.5,2.5,87,0.00,OVC,,0.04,WeatherDisplay:10.37,2013-07-31 10:07:00,
2013-07-31 06:12:00,65.1,61.2,30.05,SW,222,0.0,0.0,87,0.00,OVC,,0.04,WeatherDisplay:10.37,2013-07-31 10:12:00,
2013-07-31 06:17:00,65.1,61.2,30.05,ESE,109,1.2,3.5,87,0.00,OVC,,0.04,WeatherDisplay:10.37,2013-07-31 10:17:00,
2013-07-31 06:22:00,65.1,61.2,30.05,SSW,199,1.2,2.3,87,0.00,OVC,,0.04,WeatherDisplay:10.37,2013-07-31 10:22:00,
2013-07-31 06:27:00,65.1,61.2,30.05,SE,132,0.5,2.5,87,0.00,OVC,,0.04,WeatherDisplay:10.37,2013-07-31 10:27:00,
2013-07-31 06:32:00,65.1,61.2,30.06,SSE,155,0.0,0.0,87,0.00,OVC,,0.04,WeatherDisplay:10.37,2013-07-31 10:32:00,
2013-07-31 06:37:00,64.9,61.0,30.05,SSE,155,0.0,0.0,87,0.00,OVC,,0.04,WeatherDisplay:10.37,2013-07-31 10:37:00,
2013-07-31 06:42:00,64.9,61.0,30.05,WSW,245,1.6,1.6,87,0.00,OVC,,0.04,WeatherDisplay:10.37,2013-07-31 10:42:00,
2013-07-31 06:47:00,64.9,61.0,30.05,ESE,109,0.0,0.0,87,0.00,OVC,,0.04,WeatherDisplay:10.37,2013-07-31 10:47:00,
2013-07-31 06:52:00,64.9,61.0,30.05,West,267,3.8,3.8,87,0.00,OVC,,0.04,WeatherDisplay:10.37,2013-07-31 10:52:00,
2013-07-31 06:57:00,64.9,61.0,30.05,SSE,155,0.8,1.1,87,0.00,OVC,,0.04,WeatherDisplay:10.37,2013-07-31 10:57:00,
2013-07-31 07:02:00,64.9,60.6,30.05,SSW,199,0.0,0.0,86,0.00,OVC,,0.04,WeatherDisplay:10.37,2013-07-31 11:02:00,
2013-07-31 07:07:00,64.9,60.6,30.05,South,177,3.8,3.8,86,0.00,OVC,,0.04,WeatherDisplay:10.37,2013-07-31 11:07:00,
2013-07-31 07:12:00,64.9,60.6,30.05,SE,132,0.0,0.0,86,0.00,OVC,,0.04,WeatherDisplay:10.37,2013-07-31 11:12:00,
2013-07-31 07:17:00,64.9,60.6,30.05,South,177,2.5,3.5,86,0.00,OVC,,0.04,WeatherDisplay:10.37,2013-07-31 11:17:00,
2013-07-31 07:22:00,64.9,60.6,30.05,SSE,155,1.8,2.3,86,0.00,OVC,,0.04,WeatherDisplay:10.37,2013-07-31 11:22:00,
2013-07-31 07:27:00,64.9,60.6,30.05,SE,132,3.8,4.2,86,0.00,OVC,,0.04,WeatherDisplay:10.37,2013-07-31 11:27:00,
2013-07-31 07:32:00,65.1,60.8,30.05,SE,132,0.5,3.5,86,0.00,OVC,,0.04,WeatherDisplay:10.37,2013-07-31 11:32:00,
2013-07-31 07:37:00,64.9,60.6,30.05,SSE,155,2.7,3.5,86,0.00,OVC,,0.04,WeatherDisplay:10.37,2013-07-31 11:37:00,
2013-07-31 07:42:00,65.1,60.8,30.05,SSE,155,0.6,1.1,86,0.00,OVC,,0.04,WeatherDisplay:10.37,2013-07-31 11:42:00,
2013-07-31 07:47:00,65.1,60.8,30.05,SE,132,3.2,3.5,86,0.00,OVC,,0.04,WeatherDisplay:10.37,2013-07-31 11:47:00,
2013-07-31 07:52:00,65.1,60.8,30.05,South,177,2.9,3.5,86,0.00,OVC,,0.04,WeatherDisplay:10.37,2013-07-31 11:52:00,
2013-07-31 07:57:00,65.3,61.0,30.06,SSW,199,0.0,0.7,86,0.00,OVC,,0.04,WeatherDisplay:10.37,2013-07-31 11:57:00,
2013-07-31 08:02:00,65.3,60.7,30.05,SSE,155,0.0,1.1,85,0.04,RA,,0.08,WeatherDisplay:10.37,2013-07-31 12:02:00,
2013-07-31 08:07:00,65.5,60.8,30.05,WSW,245,2.2,3.5,85,0.04,RA,,0.08,WeatherDisplay:10.37,2013-07-31 12:07:00,
2013-07-31 08:12:00,65.5,60.8,30.05,SSW,199,3.1,3.5,85,0.04,SCT,,0.08,WeatherDisplay:10.37,2013-07-31 12:12:00,
2013-07-31 08:17:00,65.5,60.8,30.05,South,177,6.3,6.9,85,0.04,SCT,,0.08,WeatherDisplay:10.37,2013-07-31 12:17:00,
2013-07-31 08:22:00,65.5,60.8,30.05,SSW,199,0.0,0.0,85,0.04,SCT,,0.08,WeatherDisplay:10.37,2013-07-31 12:22:00,
2013-07-31 08:27:00,65.7,61.0,30.05,South,177,3.6,3.6,85,0.04,SCT,,0.08,WeatherDisplay:10.37,2013-07-31 12:27:00,
2013-07-31 08:32:00,65.8,61.2,30.05,SSE,155,4.9,5.8,85,0.04,SCT,,0.08,WeatherDisplay:10.37,2013-07-31 12:32:00,
2013-07-31 08:37:00,65.8,61.5,30.05,SE,132,0.0,3.5,86,0.04,SCT,,0.08,WeatherDisplay:10.37,2013-07-31 12:37:00,
2013-07-31 08:42:00,65.8,61.5,30.05,South,177,1.3,1.3,86,0.04,SCT,,0.08,WeatherDisplay:10.37,2013-07-31 12:42:00,
2013-07-31 08:47:00,65.8,61.5,30.05,South,177,1.2,2.3,86,0.04,SCT,,0.08,WeatherDisplay:10.37,2013-07-31 12:47:00,
2013-07-31 08:52:00,65.8,61.5,30.05,SE,132,0.0,0.0,86,0.04,SCT,,0.08,WeatherDisplay:10.37,2013-07-31 12:52:00,
2013-07-31 08:57:00,66.0,61.7,30.05,South,177,5.4,5.8,86,0.04,SCT,,0.08,WeatherDisplay:10.37,2013-07-31 12:57:00,
2013-07-31 09:02:00,66.0,61.7,30.05,SSE,155,1.3,5.8,86,0.00,SCT,,0.08,WeatherDisplay:10.37,2013-07-31 13:02:00,
2013-07-31 09:07:00,66.0,61.7,30.05,South,177,6.0,6.0,86,0.00,SCT,,0.08,WeatherDisplay:10.37,2013-07-31 13:07:00,
2013-07-31 09:12:00,66.2,61.9,30.05,SE,132,3.6,4.6,86,0.04,RA,,0.12,WeatherDisplay:10.37,2013-07-31 13:12:00,
2013-07-31 09:17:00,66.2,61.9,30.05,South,177,5.1,5.1,86,0.04,RA,,0.12,WeatherDisplay:10.37,2013-07-31 13:17:00,
2013-07-31 09:22:00,66.4,62.1,30.05,SSW,199,0.0,0.0,86,0.04,OVC,,0.12,WeatherDisplay:10.37,2013-07-31 13:22:00,
2013-07-31 09:27:00,66.6,62.2,30.05,South,177,2.8,3.5,86,0.04,OVC,,0.12,WeatherDisplay:10.37,2013-07-31 13:27:00,
2013-07-31 09:32:00,66.7,62.4,30.05,SW,222,2.2,4.6,86,0.04,OVC,,0.12,WeatherDisplay:10.37,2013-07-31 13:32:00,
2013-07-31 09:37:00,66.7,62.4,30.05,SSW,199,1.1,1.1,86,0.04,OVC,,0.12,WeatherDisplay:10.37,2013-07-31 13:37:00,
2013-07-31 09:42:00,66.9,62.6,30.05,SE,132,1.9,3.1,86,0.04,OVC,,0.12,WeatherDisplay:10.37,2013-07-31 13:42:00,
2013-07-31 09:47:00,67.3,62.9,30.05,SE,132,3.6,4.6,86,0.04,OVC,,0.12,WeatherDisplay:10.37,2013-07-31 13:47:00,
2013-07-31 09:53:00,67.8,63.8,30.05,SSE,155,1.6,1.6,87,0.04,OVC,,0.12,WeatherDisplay:10.37,2013-07-31 13:53:00,
2013-07-31 09:58:00,68.4,64.0,30.05,SE,132,2.7,3.6,86,0.04,OVC,,0.12,WeatherDisplay:10.37,2013-07-31 13:58:00,
2013-07-31 10:03:00,68.5,64.2,30.05,SSE,155,3.8,4.6,86,0.04,OVC,,0.12,WeatherDisplay:10.37,2013-07-31 14:03:00,
2013-07-31 10:08:00,68.5,63.8,30.05,SW,222,2.5,2.5,85,0.04,-DZ,,0.12,WeatherDisplay:10.37,2013-07-31 14:08:00,
2013-07-31 10:13:00,68.5,63.8,30.05,South,177,6.5,6.9,85,0.00,-DZ,,0.12,WeatherDisplay:10.37,2013-07-31 14:13:00,
2013-07-31 10:18:00,68.7,64.0,30.05,SSE,155,6.8,6.9,85,0.00,-DZ,,0.12,WeatherDisplay:10.37,2013-07-31 14:18:00,
2013-07-31 10:23:00,68.7,64.0,30.05,SSW,199,3.6,3.6,85,0.00,-DZ,,0.12,WeatherDisplay:10.37,2013-07-31 14:23:00,
2013-07-31 10:28:00,68.5,63.8,30.05,SE,132,0.0,0.0,85,0.00,-DZ,,0.12,WeatherDisplay:10.37,2013-07-31 14:28:00,
2013-07-31 10:33:00,68.7,64.0,30.05,SSE,155,1.7,2.0,85,0.00,-DZ,,0.12,WeatherDisplay:10.37,2013-07-31 14:33:00,
2013-07-31 10:38:00,68.5,63.8,30.05,West,267,0.0,0.0,85,0.00,-DZ,,0.12,WeatherDisplay:10.37,2013-07-31 14:38:00,
2013-07-31 10:43:00,68.7,64.0,30.04,West,267,1.9,2.3,85,0.00,-DZ,,0.12,WeatherDisplay:10.37,2013-07-31 14:43:00,
2013-07-31 10:48:00,68.7,64.0,30.05,SW,222,2.2,2.3,85,0.00,-DZ,,0.12,WeatherDisplay:10.37,2013-07-31 14:48:00,
2013-07-31 10:53:00,68.9,64.2,30.04,WSW,245,3.1,3.5,85,0.00,-DZ,,0.12,WeatherDisplay:10.37,2013-07-31 14:53:00,
2013-07-31 10:58:00,69.1,64.4,30.05,SSW,199,1.7,3.5,85,0.00,-DZ,,0.12,WeatherDisplay:10.37,2013-07-31 14:58:00,
2013-07-31 11:03:00,69.4,64.7,30.04,SSE,155,4.0,4.0,85,0.00,-DZ,,0.12,WeatherDisplay:10.37,2013-07-31 15:03:00,
2013-07-31 11:08:00,69.6,64.9,30.04,SSW,199,0.0,3.5,85,0.00,-DZ,,0.12,WeatherDisplay:10.37,2013-07-31 15:08:00,
2013-07-31 11:13:00,70.2,65.4,30.04,South,177,2.5,3.5,85,0.00,-DZ,,0.12,WeatherDisplay:10.37,2013-07-31 15:13:00,
2013-07-31 11:18:00,70.3,65.6,30.04,SW,222,0.0,0.0,85,0.00,-DZ,,0.12,WeatherDisplay:10.37,2013-07-31 15:18:00,
2013-07-31 11:23:00,71.2,66.5,30.04,SE,132,0.0,0.0,85,0.00,-DZ,,0.12,WeatherDisplay:10.37,2013-07-31 15:23:00,
2013-07-31 11:28:00,71.4,66.3,30.04,South,177,1.3,1.6,84,0.00,-DZ,,0.12,WeatherDisplay:10.37,2013-07-31 15:28:00,
2013-07-31 11:33:00,71.6,66.2,30.04,SSE,155,2.0,4.6,83,0.00,-DZ,,0.12,WeatherDisplay:10.37,2013-07-31 15:33:00,
2013-07-31 11:38:00,72.0,66.5,30.03,ESE,109,2.2,2.3,83,0.00,-DZ,,0.12,WeatherDisplay:10.37,2013-07-31 15:38:00,
2013-07-31 11:43:00,72.3,66.9,30.03,NW,312,0.0,0.0,83,0.00,-DZ,,0.12,WeatherDisplay:10.37,2013-07-31 15:43:00,
2013-07-31 11:48:00,72.7,66.9,30.03,ESE,109,0.9,4.6,82,0.00,-DZ,,0.12,WeatherDisplay:10.37,2013-07-31 15:48:00,
2013-07-31 11:53:00,73.0,67.2,30.03,West,267,0.0,0.0,82,0.00,-DZ,,0.12,WeatherDisplay:10.37,2013-07-31 15:53:00,
2013-07-31 11:58:00,73.8,67.6,30.03,SE,132,1.9,3.5,81,0.00,-DZ,,0.12,WeatherDisplay:10.37,2013-07-31 15:58:00,
2013-07-31 12:03:00,73.9,67.4,30.03,SSE,155,2.2,2.3,80,0.00,-DZ,,0.12,WeatherDisplay:10.37,2013-07-31 16:03:00,
2013-07-31 12:08:00,74.1,67.6,30.03,SE,132,2.2,2.3,80,0.00,OVC,,0.12,WeatherDisplay:10.37,2013-07-31 16:08:00,
2013-07-31 12:13:00,73.8,66.8,30.03,SE,132,0.0,2.3,79,0.00,OVC,,0.12,WeatherDisplay:10.37,2013-07-31 16:13:00,
2013-07-31 12:18:00,73.6,66.7,30.03,ENE,65,0.0,0.0,79,0.00,OVC,,0.12,WeatherDisplay:10.37,2013-07-31 16:18:00,
2013-07-31 12:23:00,73.4,66.9,30.03,SSE,155,1.8,2.3,80,0.00,OVC,,0.12,WeatherDisplay:10.37,2013-07-31 16:23:00,
2013-07-31 12:28:00,73.6,66.7,30.02,SW,222,2.9,3.5,79,0.00,OVC,,0.12,WeatherDisplay:10.37,2013-07-31 16:28:00,
2013-07-31 12:33:00,73.6,66.7,30.02,SE,132,3.6,3.6,79,0.00,OVC,,0.12,WeatherDisplay:10.37,2013-07-31 16:33:00,
2013-07-31 12:38:00,73.4,66.5,30.02,WSW,245,1.7,2.7,79,0.00,OVC,,0.12,WeatherDisplay:10.37,2013-07-31 16:38:00,
2013-07-31 12:43:00,73.2,66.3,30.02,South,177,4.0,4.0,79,0.00,OVC,,0.12,WeatherDisplay:10.37,2013-07-31 16:43:00,
2013-07-31 12:48:00,73.2,66.3,30.02,SE,132,0.0,0.0,79,0.00,OVC,,0.12,WeatherDisplay:10.37,2013-07-31 16:48:00,
2013-07-31 12:53:00,73.2,66.3,30.02,SSE,155,2.0,2.3,79,0.00,OVC,,0.12,WeatherDisplay:10.37,2013-07-31 16:53:00,
2013-07-31 12:58:00,73.2,66.3,30.02,SSE,155,4.2,4.6,79,0.00,OVC,,0.12,WeatherDisplay:10.37,2013-07-31 16:58:00,
2013-07-31 13:03:00,73.2,66.3,30.03,SE,132,1.1,1.1,79,0.00,OVC,,0.12,WeatherDisplay:10.37,2013-07-31 17:03:00,
2013-07-31 13:08:00,73.2,66.3,30.02,SSE,155,0.8,1.6,79,0.00,OVC,,0.12,WeatherDisplay:10.37,2013-07-31 17:08:00,
2013-07-31 13:13:00,73.2,66.3,30.02,South,177,1.3,1.3,79,0.00,OVC,,0.12,WeatherDisplay:10.37,2013-07-31 17:13:00,
2013-07-31 13:18:00,73.2,66.3,30.02,South,177,3.8,3.8,79,0.00,OVC,,0.12,WeatherDisplay:10.37,2013-07-31 17:18:00,
2013-07-31 13:23:00,73.6,66.7,30.02,SSW,199,2.0,3.1,79,0.00,OVC,,0.12,WeatherDisplay:10.37,2013-07-31 17:23:00,
2013-07-31 13:28:00,73.6,66.7,30.02,SW,222,3.6,3.6,79,0.00,OVC,,0.12,WeatherDisplay:10.37,2013-07-31 17:28:00,
2013-07-31 13:33:00,73.8,66.8,30.02,SSW,199,0.0,0.0,79,0.00,OVC,,0.12,WeatherDisplay:10.37,2013-07-31 17:33:00,
2013-07-31 13:38:00,74.1,66.8,30.01,SW,222,4.5,5.8,78,0.00,OVC,,0.12,WeatherDisplay:10.37,2013-07-31 17:38:00,
2013-07-31 13:43:00,74.5,67.2,30.02,SE,132,5.7,6.9,78,0.00,OVC,,0.12,WeatherDisplay:10.37,2013-07-31 17:43:00,
2013-07-31 13:48:00,74.8,67.5,30.01,SE,132,2.0,2.3,78,0.00,OVC,,0.12,WeatherDisplay:10.37,2013-07-31 17:48:00,
2013-07-31 13:53:00,74.8,67.1,30.01,South,177,5.3,5.8,77,0.00,OVC,,0.12,WeatherDisplay:10.37,2013-07-31 17:53:00,
2013-07-31 13:58:00,74.8,67.1,30.01,South,177,4.0,8.1,77,0.00,OVC,,0.12,WeatherDisplay:10.37,2013-07-31 17:58:00,
2013-07-31 14:03:00,75.0,67.3,30.01,SSE,155,0.0,0.0,77,0.00,OVC,,0.12,WeatherDisplay:10.37,2013-07-31 18:03:00,
2013-07-31 14:08:00,75.4,67.7,30.01,WNW,289,4.0,4.6,77,0.00,OVC,,0.12,WeatherDisplay:10.37,2013-07-31 18:08:00,
2013-07-31 14:13:00,75.6,67.5,30.01,SE,132,0.0,0.0,76,0.00,OVC,,0.12,WeatherDisplay:10.37,2013-07-31 18:13:00,
2013-07-31 14:18:00,75.9,67.8,30.01,South,177,1.1,1.1,76,0.00,OVC,,0.12,WeatherDisplay:10.37,2013-07-31 18:18:00,
2013-07-31 14:23:00,75.9,67.8,30.01,SE,132,0.0,0.0,76,0.00,OVC,,0.12,WeatherDisplay:10.37,2013-07-31 18:23:00,
2013-07-31 14:28:00,76.3,67.8,30.00,WSW,245,0.3,2.3,75,0.00,OVC,,0.12,WeatherDisplay:10.37,2013-07-31 18:28:00,
2013-07-31 14:33:00,76.3,67.8,30.01,South,177,4.5,4.6,75,0.00,OVC,,0.12,WeatherDisplay:10.37,2013-07-31 18:33:00,
2013-07-31 14:38:00,76.3,67.8,30.00,SW,222,2.2,2.3,75,0.00,OVC,,0.12,WeatherDisplay:10.37,2013-07-31 18:38:00,
2013-07-31 14:43:00,76.3,67.8,30.00,SW,222,6.5,6.9,75,0.00,OVC,,0.12,WeatherDisplay:10.37,2013-07-31 18:43:00,
2013-07-31 14:48:00,76.8,68.3,30.00,South,177,0.0,0.0,75,0.00,OVC,,0.12,WeatherDisplay:10.37,2013-07-31 18:48:00,
2013-07-31 14:53:00,77.2,68.2,30.00,SSE,155,0.0,0.0,74,0.00,OVC,,0.12,WeatherDisplay:10.37,2013-07-31 18:53:00,
2013-07-31 14:58:00,77.5,68.6,29.99,SE,132,1.6,3.5,74,0.00,OVC,,0.12,WeatherDisplay:10.37,2013-07-31 18:58:00,
2013-07-31 15:03:00,77.7,68.4,29.99,South,177,0.0,0.0,73,0.00,OVC,,0.12,WeatherDisplay:10.37,2013-07-31 19:03:00,
2013-07-31 15:08:00,78.1,69.1,30.00,SE,132,0.0,0.0,74,0.00,OVC,,0.12,WeatherDisplay:10.37,2013-07-31 19:08:00,
2013-07-31 15:13:00,78.1,68.7,29.99,SE,132,3.6,3.6,73,0.00,OVC,,0.12,WeatherDisplay:10.37,2013-07-31 19:13:00,
2013-07-31 15:18:00,78.3,68.5,29.98,South,177,0.7,1.1,72,0.00,OVC,,0.12,WeatherDisplay:10.37,2013-07-31 19:18:00,
2013-07-31 15:23:00,78.4,68.7,29.99,WSW,245,2.1,2.7,72,0.00,OVC,,0.12,WeatherDisplay:10.37,2013-07-31 19:23:00,
2013-07-31 15:28:00,77.9,68.5,29.99,South,177,1.0,2.3,73,0.00,OVC,,0.12,WeatherDisplay:10.37,2013-07-31 19:28:00,
2013-07-31 15:33:00,77.7,68.4,29.99,East,87,0.0,0.0,73,0.00,OVC,,0.12,WeatherDisplay:10.37,2013-07-31 19:33:00,
2013-07-31 15:38:00,77.5,68.2,29.98,SE,132,0.4,1.1,73,0.00,OVC,,0.12,WeatherDisplay:10.37,2013-07-31 19:38:00,
2013-07-31 15:43:00,77.2,67.9,29.98,SSE,155,0.9,1.1,73,0.00,OVC,,0.12,WeatherDisplay:10.37,2013-07-31 19:43:00,
2013-07-31 15:48:00,76.8,67.9,29.98,West,267,1.8,2.3,74,0.00,OVC,,0.12,WeatherDisplay:10.37,2013-07-31 19:48:00,
2013-07-31 15:54:00,76.8,67.9,29.98,WSW,245,0.0,0.0,74,0.00,OVC,,0.12,WeatherDisplay:10.37,2013-07-31 19:54:00,
2013-07-31 15:59:00,77.0,68.1,29.98,WSW,245,0.0,1.1,74,0.00,OVC,,0.12,WeatherDisplay:10.37,2013-07-31 19:59:00,
2013-07-31 16:04:00,77.0,68.1,29.98,South,177,0.0,0.0,74,0.00,OVC,,0.12,WeatherDisplay:10.37,2013-07-31 20:04:00,
2013-07-31 16:09:00,77.4,68.4,29.97,SSE,155,0.0,0.0,74,0.00,OVC,,0.12,WeatherDisplay:10.37,2013-07-31 20:09:00,
2013-07-31 16:14:00,77.9,68.9,29.96,SSE,155,0.0,1.1,74,0.00,OVC,,0.12,WeatherDisplay:10.37,2013-07-31 20:14:00,
2013-07-31 16:19:00,78.4,69.1,29.97,West,267,0.0,0.0,73,0.00,OVC,,0.12,WeatherDisplay:10.37,2013-07-31 20:19:00,
2013-07-31 16:24:00,78.1,68.3,29.97,West,267,0.0,0.0,72,0.00,OVC,,0.12,WeatherDisplay:10.37,2013-07-31 20:24:00,
2013-07-31 16:29:00,77.5,68.2,29.97,West,267,0.0,0.0,73,0.00,OVC,,0.12,WeatherDisplay:10.37,2013-07-31 20:29:00,
2013-07-31 16:34:00,77.4,68.0,29.97,South,177,0.0,0.0,73,0.00,OVC,,0.12,WeatherDisplay:10.37,2013-07-31 20:34:00,
2013-07-31 16:39:00,76.8,67.5,29.97,NE,42,0.0,0.0,73,0.00,OVC,,0.12,WeatherDisplay:10.37,2013-07-31 20:39:00,
2013-07-31 16:44:00,76.8,67.5,29.97,ESE,109,0.0,0.0,73,0.00,OVC,,0.12,WeatherDisplay:10.37,2013-07-31 20:44:00,
2013-07-31 16:49:00,76.8,67.5,29.97,ESE,109,0.0,0.0,73,0.00,OVC,,0.12,WeatherDisplay:10.37,2013-07-31 20:49:00,
2013-07-31 16:54:00,76.8,67.9,29.97,ESE,109,0.0,0.0,74,0.00,OVC,,0.12,WeatherDisplay:10.37,2013-07-31 20:54:00,
2013-07-31 16:59:00,76.8,67.5,29.97,SE,132,0.0,0.0,73,0.00,OVC,,0.12,WeatherDisplay:10.37,2013-07-31 20:59:00,
2013-07-31 17:04:00,77.0,68.1,29.97,WSW,245,0.0,0.0,74,0.00,OVC,,0.12,WeatherDisplay:10.37,2013-07-31 21:04:00,
2013-07-31 17:09:00,76.8,67.9,29.97,NNW,335,0.1,2.3,74,0.00,OVC,,0.12,WeatherDisplay:10.37,2013-07-31 21:09:00,
2013-07-31 17:14:00,76.8,67.9,29.97,WNW,289,1.1,2.3,74,0.00,OVC,,0.12,WeatherDisplay:10.37,2013-07-31 21:14:00,
2013-07-31 17:19:00,76.5,67.2,29.97,NNW,335,1.2,1.6,73,0.00,OVC,,0.12,WeatherDisplay:10.37,2013-07-31 21:19:00,
2013-07-31 17:24:00,76.1,66.8,29.96,NE,42,0.3,2.3,73,0.00,OVC,,0.12,WeatherDisplay:10.37,2013-07-31 21:24:00,
2013-07-31 17:29:00,75.9,67.0,29.96,NNW,335,2.2,3.5,74,0.00,OVC,,0.12,WeatherDisplay:10.37,2013-07-31 21:29:00,
2013-07-31 17:34:00,75.9,67.0,29.96,NNW,335,0.4,2.2,74,0.00,OVC,,0.12,WeatherDisplay:10.37,2013-07-31 21:34:00,
2013-07-31 17:39:00,75.9,67.0,29.96,North,357,2.3,2.5,74,0.00,OVC,,0.12,WeatherDisplay:10.37,2013-07-31 21:39:00,
2013-07-31 17:44:00,75.9,67.0,29.96,NNW,335,2.0,2.3,74,0.00,OVC,,0.12,WeatherDisplay:10.37,2013-07-31 21:44:00,
2013-07-31 17:49:00,75.7,67.2,29.96,NNW,335,2.3,3.6,75,0.00,OVC,,0.12,WeatherDisplay:10.37,2013-07-31 21:49:00,
2013-07-31 17:54:00,75.6,67.1,29.96,NNW,335,2.8,3.5,75,0.00,OVC,,0.12,WeatherDisplay:10.37,2013-07-31 21:54:00,
2013-07-31 17:59:00,75.6,67.1,29.95,NNW,335,1.1,2.3,75,0.00,OVC,,0.12,WeatherDisplay:10.37,2013-07-31 21:59:00,
2013-07-31 18:04:00,75.7,67.2,29.95,NNW,335,0.6,3.1,75,0.00,OVC,,0.12,WeatherDisplay:10.37,2013-07-31 22:04:00,
2013-07-31 18:09:00,75.4,66.9,29.95,NW,312,3.1,3.5,75,0.00,OVC,,0.12,WeatherDisplay:10.37,2013-07-31 22:09:00,
2013-07-31 18:14:00,75.4,66.9,29.95,North,357,1.1,1.1,75,0.00,OVC,,0.12,WeatherDisplay:10.37,2013-07-31 22:14:00,
2013-07-31 18:19:00,75.0,66.6,29.95,WNW,289,0.8,1.8,75,0.00,OVC,,0.12,WeatherDisplay:10.37,2013-07-31 22:19:00,
2013-07-31 18:24:00,75.0,66.9,29.95,North,357,0.0,0.0,76,0.00,OVC,,0.12,WeatherDisplay:10.37,2013-07-31 22:24:00,
2013-07-31 18:29:00,75.0,66.9,29.95,North,357,1.8,2.3,76,0.00,OVC,,0.12,WeatherDisplay:10.37,2013-07-31 22:29:00,
2013-07-31 18:34:00,75.2,67.1,29.95,East,87,0.0,0.0,76,0.00,OVC,,0.12,WeatherDisplay:10.37,2013-07-31 22:34:00,
2013-07-31 18:39:00,75.0,67.3,29.95,North,357,0.0,0.0,77,0.00,OVC,,0.12,WeatherDisplay:10.37,2013-07-31 22:39:00,
2013-07-31 18:44:00,75.2,67.5,29.95,NE,42,0.0,0.0,77,0.00,OVC,,0.12,WeatherDisplay:10.37,2013-07-31 22:44:00,
2013-07-31 18:49:00,75.0,67.3,29.94,NE,42,0.0,0.0,77,0.00,OVC,,0.12,WeatherDisplay:10.37,2013-07-31 22:49:00,
2013-07-31 18:54:00,75.0,67.3,29.95,NNW,335,0.1,1.1,77,0.00,OVC,,0.12,WeatherDisplay:10.37,2013-07-31 22:54:00,
2013-07-31 18:59:00,75.0,67.3,29.95,NE,42,0.0,0.0,77,0.00,OVC,,0.12,WeatherDisplay:10.37,2013-07-31 22:59:00,
2013-07-31 19:04:00,74.7,67.0,29.95,East,87,0.0,0.0,77,0.00,OVC,,0.12,WeatherDisplay:10.37,2013-07-31 23:04:00,
2013-07-31 19:09:00,74.5,67.2,29.95,ENE,65,0.0,0.0,78,0.00,OVC,,0.12,WeatherDisplay:10.37,2013-07-31 23:09:00,
2013-07-31 19:14:00,74.5,67.2,29.95,NE,42,0.0,0.0,78,0.00,OVC,,0.12,WeatherDisplay:10.37,2013-07-31 23:14:00,
2013-07-31 19:19:00,74.1,67.2,29.95,East,87,0.0,0.0,79,0.00,OVC,,0.12,WeatherDisplay:10.37,2013-07-31 23:19:00,
2013-07-31 19:24:00,74.1,66.8,29.95,NNE,19,0.0,0.0,78,0.00,OVC,,0.12,WeatherDisplay:10.37,2013-07-31 23:24:00,
2013-07-31 19:29:00,73.9,67.0,29.95,ENE,65,0.0,0.0,79,0.00,OVC,,0.12,WeatherDisplay:10.37,2013-07-31 23:29:00,
2013-07-31 19:34:00,73.9,67.0,29.95,ENE,65,0.0,0.0,79,0.00,OVC,,0.12,WeatherDisplay:10.37,2013-07-31 23:34:00,
2013-07-31 19:39:00,74.1,67.2,29.95,ENE,65,0.0,0.0,79,0.00,OVC,,0.12,WeatherDisplay:10.37,2013-07-31 23:39:00,
2013-07-31 19:44:00,74.1,67.6,29.96,ENE,65,0.0,0.0,80,0.00,OVC,,0.12,WeatherDisplay:10.37,2013-07-31 23:44:00,
2013-07-31 19:49:00,73.9,67.4,29.96,ENE,65,0.0,0.0,80,0.00,OVC,,0.12,WeatherDisplay:10.37,2013-07-31 23:49:00,
2013-07-31 19:54:00,73.9,67.4,29.96,ENE,65,0.0,0.0,80,0.00,OVC,,0.12,WeatherDisplay:10.37,2013-07-31 23:54:00,
2013-07-31 19:59:00,73.9,67.4,29.96,ENE,65,0.0,0.0,80,0.00,OVC,,0.12,WeatherDisplay:10.37,2013-07-31 23:59:00,
2013-07-31 20:04:00,73.8,67.2,29.97,ENE,65,0.0,0.0,80,0.00,OVC,,0.12,WeatherDisplay:10.37,2013-08-01 00:04:00,
2013-07-31 20:09:00,73.6,67.0,29.96,East,87,0.0,0.0,80,0.00,OVC,,0.12,WeatherDisplay:10.37,2013-08-01 00:09:00,
2013-07-31 20:14:00,73.6,67.0,29.97,East,87,0.0,0.0,80,0.00,OVC,,0.12,WeatherDisplay:10.37,2013-08-01 00:14:00,
2013-07-31 20:19:00,73.2,66.7,29.97,East,87,0.0,0.0,80,0.00,OVC,,0.12,WeatherDisplay:10.37,2013-08-01 00:19:00,
2013-07-31 20:24:00,73.2,66.7,29.97,SSW,199,0.0,0.0,80,0.00,OVC,,0.12,WeatherDisplay:10.37,2013-08-01 00:24:00,
2013-07-31 20:29:00,73.2,66.7,29.97,SSW,199,0.0,0.0,80,0.00,OVC,,0.12,WeatherDisplay:10.37,2013-08-01 00:29:00,
2013-07-31 20:34:00,73.0,66.9,29.97,SW,222,0.0,0.0,81,0.00,OVC,,0.12,WeatherDisplay:10.37,2013-08-01 00:34:00,
2013-07-31 20:39:00,72.7,66.5,29.97,West,267,0.0,0.0,81,0.00,OVC,,0.12,WeatherDisplay:10.37,2013-08-01 00:39:00,
2013-07-31 20:44:00,72.5,66.7,29.97,West,267,0.0,0.0,82,0.00,OVC,,0.12,WeatherDisplay:10.37,2013-08-01 00:44:00,
2013-07-31 20:49:00,72.5,66.7,29.97,West,267,0.0,0.0,82,0.00,OVC,,0.12,WeatherDisplay:10.37,2013-08-01 00:49:00,
2013-07-31 20:54:00,72.3,66.5,29.97,West,267,0.0,0.0,82,0.00,OVC,,0.12,WeatherDisplay:10.37,2013-08-01 00:54:00,
2013-07-31 20:59:00,72.3,66.5,29.97,West,267,0.0,0.0,82,0.00,OVC,,0.12,WeatherDisplay:10.37,2013-08-01 00:59:00,
2013-07-31 21:04:00,72.1,66.7,29.97,West,267,0.0,0.0,83,0.00,OVC,,0.12,WeatherDisplay:10.37,2013-08-01 01:04:00,
2013-07-31 21:09:00,72.0,66.5,29.97,WSW,245,0.0,0.0,83,0.00,OVC,,0.12,WeatherDisplay:10.37,2013-08-01 01:09:00,
2013-07-31 21:14:00,72.0,66.5,29.97,WSW,245,0.0,0.0,83,0.00,OVC,,0.12,WeatherDisplay:10.37,2013-08-01 01:14:00,
2013-07-31 21:19:00,71.8,66.3,29.97,West,267,0.0,0.0,83,0.00,OVC,,0.12,WeatherDisplay:10.37,2013-08-01 01:19:00,
2013-07-31 21:24:00,71.8,66.3,29.97,West,267,0.0,0.0,83,0.00,OVC,,0.12,WeatherDisplay:10.37,2013-08-01 01:24:00,
2013-07-31 21:29:00,71.6,66.2,29.97,West,267,0.0,0.0,83,0.00,OVC,,0.12,WeatherDisplay:10.37,2013-08-01 01:29:00,
2013-07-31 21:34:00,71.4,66.0,29.97,WSW,245,0.0,0.0,83,0.00,OVC,,0.12,WeatherDisplay:10.37,2013-08-01 01:34:00,
2013-07-31 21:39:00,71.2,65.8,29.97,WSW,245,0.0,0.0,83,0.00,OVC,,0.12,WeatherDisplay:10.37,2013-08-01 01:39:00,
2013-07-31 21:44:00,71.2,65.8,29.97,WSW,245,0.0,0.0,83,0.00,OVC,,0.12,WeatherDisplay:10.37,2013-08-01 01:44:00,
2013-07-31 21:49:00,70.9,65.8,29.97,WNW,289,0.0,0.0,84,0.00,OVC,,0.12,WeatherDisplay:10.37,2013-08-01 01:49:00,
2013-07-31 21:54:00,70.5,65.8,29.97,NNW,335,0.9,1.1,85,0.00,OVC,,0.12,WeatherDisplay:10.37,2013-08-01 01:54:00,
2013-07-31 21:59:00,70.3,65.6,29.97,NW,312,0.0,0.0,85,0.00,OVC,,0.12,WeatherDisplay:10.37,2013-08-01 01:59:00,
2013-07-31 22:04:00,70.2,65.8,29.97,NW,312,0.0,0.0,86,0.00,OVC,,0.12,WeatherDisplay:10.37,2013-08-01 02:04:00,
2013-07-31 22:05:00,70.2,65.8,29.97,NW,312,0.0,0.0,86,0.00,OVC,,0.12,WeatherDisplay:10.37,2013-08-01 02:05:00,
2013-07-31 22:10:00,70.0,65.6,29.97,WNW,289,0.0,0.0,86,0.00,-DZ,,0.12,WeatherDisplay:10.37,2013-08-01 02:10:00,
2013-07-31 22:15:00,69.7,65.3,29.97,WNW,293,0.0,0.0,86,0.00,-DZ,,0.12,WeatherDisplay:10.37,2013-08-01 02:15:00,
2013-07-31 22:20:00,69.6,64.9,29.97,WNW,289,0.0,0.0,85,0.00,-DZ,,0.12,WeatherDisplay:10.37,2013-08-01 02:20:00,
2013-07-31 22:25:00,69.4,65.1,29.97,WNW,296,0.0,0.0,86,0.00,-DZ,,0.12,WeatherDisplay:10.37,2013-08-01 02:25:00,
2013-07-31 22:30:00,69.1,64.7,29.97,North,357,0.0,0.0,86,0.04,-DZ,,0.16,WeatherDisplay:10.37,2013-08-01 02:30:00,
2013-07-31 22:35:00,68.7,64.4,29.97,North,357,0.0,0.0,86,0.04,-DZ,,0.16,WeatherDisplay:10.37,2013-08-01 02:35:00,
2013-07-31 22:40:00,68.7,64.4,29.97,North,357,0.0,0.0,86,0.04,-DZ,,0.16,WeatherDisplay:10.37,2013-08-01 02:40:00,
2013-07-31 22:45:00,68.5,64.2,29.97,North,357,0.0,0.0,86,0.04,-DZ,,0.16,WeatherDisplay:10.37,2013-08-01 02:45:00,
2013-07-31 22:50:00,68.4,64.0,29.97,North,357,0.0,0.0,86,0.04,-DZ,,0.16,WeatherDisplay:10.37,2013-08-01 02:50:00,
2013-07-31 22:55:00,68.2,63.8,29.97,NNW,335,0.0,0.0,86,0.04,-DZ,,0.16,WeatherDisplay:10.37,2013-08-01 02:55:00,
2013-07-31 23:00:00,68.0,63.7,29.97,NNW,335,0.0,0.0,86,0.04,-DZ,,0.16,WeatherDisplay:10.37,2013-08-01 03:00:00,
2013-07-31 23:05:00,67.8,63.8,29.97,NNW,335,0.0,0.0,87,0.04,-DZ,,0.16,WeatherDisplay:10.37,2013-08-01 03:05:00,
2013-07-31 23:10:00,67.8,63.8,29.97,West,267,0.0,0.0,87,0.04,CLR,,0.16,WeatherDisplay:10.37,2013-08-01 03:10:00,
2013-07-31 23:15:00,67.8,63.8,29.98,NNW,335,0.5,1.1,87,0.04,CLR,,0.16,WeatherDisplay:10.37,2013-08-01 03:15:00,
2013-07-31 23:20:00,67.6,63.6,29.97,NW,312,1.1,1.1,87,0.04,CLR,,0.16,WeatherDisplay:10.37,2013-08-01 03:20:00,
2013-07-31 23:25:00,67.6,64.0,29.98,NW,312,2.2,2.3,88,0.04,CLR,,0.16,WeatherDisplay:10.37,2013-08-01 03:25:00,
2013-07-31 23:30:00,67.8,64.1,29.98,NW,312,2.2,2.3,88,0.00,CLR,,0.16,WeatherDisplay:10.37,2013-08-01 03:30:00,
2013-07-31 23:35:00,68.0,64.6,29.98,NNW,335,1.0,1.6,89,0.00,CLR,,0.16,WeatherDisplay:10.37,2013-08-01 03:35:00,
2013-07-31 23:40:00,68.2,64.8,29.98,NW,312,0.0,0.0,89,0.00,CLR,,0.16,WeatherDisplay:10.37,2013-08-01 03:40:00,
2013-07-31 23:45:00,68.2,64.8,29.98,NNW,335,0.0,0.0,89,0.00,CLR,,0.16,WeatherDisplay:10.37,2013-08-01 03:45:00,
2013-07-31 23:50:00,68.4,65.0,29.97,NW,312,0.0,1.1,89,0.00,CLR,,0.16,WeatherDisplay:10.37,2013-08-01 03:50:00,
2013-07-31 23:55:00,68.2,64.8,29.97,NW,312,0.0,0.0,89,0.00,CLR,,0.16,WeatherDisplay:10.37,2013-08-01 03:55:00,